CZ-3B R/B, 43649

Orbit data source: Space-Track

CZ-3B R/B, 43649 is space debris in HEO originally from a launch on Mon, 15 Oct 2018 UTC launched from the Xichang Space Center, China (XSC). Debris objects in space refer to the collection of defunct objects orbiting the Earth. Examples of debris include non-operational satellites, rocket bodies, and fragments generated from explosions, collisions, or faulty payload assembly.

Loading next visibility...
Identifier
43649, 2018-078C
Orbit
HEO
Country
Flag of CNCN / PRC
Related business
Manufacturer
CALT
Mission
Spacecraft
Bus & Motor
CZ-3A STAGE 3, Unknown motor
Mass
~2,800 kg wet, ~2,800 kg dry
Launch date (UTC)
2018-10-15 (7 years ago)
Launch vehicle
Unknown
Launch site
Xichang Space Center, China (XSC)
Object type
Payload
Rocket body
Debris
Shape & HBR
Cyl + 1 Nozzle, 6.2 m
Radar Cross Section
32.704 m², Large (>1 m²)

Expand to show TLE details & history
Last TLE update: 2 days ago

TLE from 2 days ago
0 CZ-3B R/B
1 43649U 18078C   25256.40717010  .00000155  00000-0  29294-3 0  9990
2 43649  54.9678  30.8674 5509130 270.4615  30.0478  4.64319893116358
Epoch: 2025-09-13T09:46Z
TLE epoch observation values (Epoch: 2025-09-13T09:46:19.496Z)
Latitude
-0.00004°
Longitude
-108.37225°
Altitude
4,154.294 km
Speed
7.031 km/s
True Right ascension
02h 03m 23s
True Declination
0° 00' 00"
Sunlit
Object was in daylight at epoch
Visualization orbit readout
Latitude
Unknown
Longitude
Unknown
Altitude
Unknown
Speed
Unknown
Apparent Right ascension
Unknown
Apparent Declination
Unknown
Sunlit
N/A
Visualization observer readout
Local Sidereal Time
00:38:59
Azimuth
Unknown
Elevation
Unknown
Doppler factor
Unknown
Orbital elements
Apogee altitude
17,160.277 km
Perigee altitude
437.716 km
Semi-major axis
15,177.134 km
Eccentricity
0.55091
Inclination
54.9678°
RAAN
30.8674°
Arg. of periapsis
270.4615°
True anomaly
89.69016°
Mean anomaly
30.0478°
Eccentric anomaly
56.31213°
Mean motion
1.1608 °/min
Orbital period
310.13 mins
BSTAR
0.00029294
Loading maneuver chart data...
Computing Atmospheric mass density...
Loading historical data...
Loading historical data...
Loading historical data...
Loading historical data...
Loading historical data...
Loading historical data...
Loading historical data...
Other satellites on launch #78 in the year 2018 (2018-10-15 UTC)

Documentation

Showing up to 5 results
|